Погода в Новой Чигле

Россия / Воронежская область     51°13′28″N   40°28′30″E
темп.,
°C
ветер,
м/с
пор.,
м/с
влажн.,
%
обл.,
%
осадки,
мм/ч
давл.,
гПа
погр.,
м
13 июня, вс
вс1300:00+14ю37955 0.0 1009141
03:00+14ююз379757 0.0 1009161
06:00+16ююз379563 0.0 1009237
09:00+20ююз4582100 0.0 1010677
12:00+22юз447089 0.8 10101194
15:00+23юз346289 1.3 10101460
18:00+22ю12715 2.4 100999
21:00+18ююв338640 2.8 101022
14 июня, пн
пн1400:00+16ююв22906 0.0 101118
03:00+16ю11905 0.0 101110
06:00+17юв22892 0.0 101284
09:00+22вюв227660 0.8 1013387
12:00+25всв216011 0.9 10131390
15:00+25в11596 2.1 10131338
18:00+24св116773 0.6 10131072
21:00+19всв228640 1.0 101314
15 июня, вт
вт1500:00+17в229496 2.9 101319
03:00+17в229468 2.9 101325
06:00+18в239499 0.0 1013137
09:00+21в348397 0.0 1013611
12:00+23в3467100 0.1 10121257
15:00+19всв3584100 0.1 1012215
18:00+18вюв1287100 0.0 101172
21:00+18ююв1183100 0.0 101111
16 июня, ср
ср1600:00+17ююз228280 0.0 101034
03:00+17зюз237999 0.0 101062
06:00+17зсз2282100 0.1 101043
09:00+20з358384 0.1 1011320
12:00+25зюз4464100 0.7 10111093
15:00+26з455991 1.0 10111588
18:00+24ссз357511 1.3 1011222
21:00+19ссв228598 1.4 101314
17 июня, чт
чт1700:00+17св33886 0.0 101438
03:00+17ссв489755 0.0 1015163
06:00+18ссв5109542 0.0 1016338
09:00+21св687714 0.0 1017732
12:00+24св786617 0.0 10181156
15:00+24св786220 0.0 10191430
18:00+22св69690 0.0 10201014
21:00+17св613720 0.0 1021447